Volver al catálogo

STARLINK-5883

ActivoComunicacionesVLEO
NORAD 55956·PAYLOAD·🇺🇸 United States

Lanzado Mar 17, 2023 desde Vandenberg Space Force Base

Loading…

Próximos Pases (próximas 24 horas)

TLE

ActualizadoSource: CelesTrak SupGP

Época: Sep 15, 2026, 02:48 UTC

1 55956C 23037AU  26258.11715278  .00041059  00000+0  34418-2 0  2588
2 55956  70.0003 146.7268 0003016 274.9375 328.6653 14.98299461    10

Sigue STARLINK-5883 en tiempo real con AllMySat

Download on the App Store